Lid_Strength_Index
4 4 4 4 4 4 4 4 4 4 4 4 4 4 3 3 3 5 8 5 5 1 -1 3 2 2 3 5 4 4 12 14 12 12 11 7 9 6 5 6 5 5 5 4 2
4 4 4 4 4 4 4 4 4 4 4 4 4 4 4 3 6 7 4 1 0 -1 2 3 5 4 6 6 6 9 12 12 8 8 9 8 8 7 8 7 7 6 4 3 3
4 4 4 4 4 4 4 4 4 4 4 4 4 4 4 4 7 7 -1 0 -2 -1 1 2 3 6 8 7 7 8 12 8 8 7 7 8 8 6 8 9 7 8 6 4 4
4 4 4 4 4 4 4 4 4 4 4 4 4 4 4 6 12 5 -2 -1 -2 1 4 5 6 8 9 9 7 11 8 8 7 6 7 8 7 8 7 7 5 5 4 5 5
4 4 3 4 4 4 4 4 4 4 4 4 4 4 7 11 11 5 -2 -1 0 3 5 7 8 9 9 8 7 9 8 7 6 6 6 6 8 8 7 5 4 5 4 5 4
4 3 3 3 3 3 3 4 4 4 4 4 4 4 8 14 8 5 2 1 2 4 7 7 7 7 8 9 8 7 7 7 6 7 6 7 8 7 7 5 5 5 5 5 4
4 4 4 4 3 4 4 4 4 3 2 4 3 4 8 10 5 5 4 4 2 5 7 6 7 7 9 9 7 8 9 9 7 7 7 6 9 9 6 5 6 6 5 5 4
4 4 4 4 4 4 4 5 4 2 3 3 2 4 9 4 4 4 6 7 3 4 6 6 7 7 9 8 9 9 11 13 8 7 7 7 12 9 6 7 7 6 5 5 4
4 4 4 4 4 4 5 5 4 2 2 2 5 7 9 2 6 6 5 7 4 5 6 5 8 10 8 11 13 13 15 12 10 7 8 8 11 8 6 7 8 7 6 5 5
4 4 4 5 5 5 5 5 4 2 3 3 3 10 9 10 9 8 6 4 6 6 8 9 10 12 12 13 15 15 14 13 12 9 8 10 11 9 7 7 8 7 6 6 5
4 5 5 5 5 6 7 12 13 14 13 15 13 11 11 9 8 9 8 6 6 9 12 11 13 14 12 10 11 11 11 12 10 8 9 10 10 10 8 8 8 7 7 6 6
5 5 5 6 6 6 9 12 12 12 15 11 11 12 10 10 11 10 8 8 8 11 10 12 14 11 10 10 10 12 13 13 11 9 10 10 10 9 9 8 8 8 7 6 5
5 5 5 6 6 8 10 10 10 12 16 13 11 11 10 11 11 10 9 10 10 9 10 12 11 9 10 10 11 12 13 13 12 10 10 10 12 10 9 8 7 7 6 6 6
5 5 6 5 8 8 8 7 7 9 17 12 11 9 10 9 12 7 7 9 10 10 9 10 8 9 11 10 10 12 10 11 12 12 15 11 18 13 11 10 8 8 7 6 5
5 5 5 4 9 8 7 6 6 9 19 9 10 6 9 10 9 9 6 9 11 12 11 11 10 10 11 10 8 10 9 10 11 14 15 13 14 14 11 12 10 8 7 6 5
5 4 4 6 7 6 5 7 9 15 18 11 10 11 11 10 9 8 8 7 8 10 10 11 8 8 9 8 8 7 9 10 12 15 17 14 14 15 13 11 10 8 7 6 5
4 4 4 4 9 6 6 10 16 19 11 13 14 12 12 11 10 10 10 10 12 15 15 11 10 9 8 10 8 9 12 17 17 18 16 13 15 12 10 9 8 8 7 6 5
4 4 4 3 4 5 9 13 18 14 15 12 12 12 13 11 11 11 11 12 10 11 15 17 14 10 9 9 10 10 11 16 21 19 16 14 16 14 8 7 7 6 6 5 5
4 7 6 5 4 7 11 17 17 16 13 13 13 15 14 11 12 12 12 12 10 10 15 16 16 11 8 8 8 11 13 11 16 18 17 14 15 13 11 7 7 7 6 6 5
7 9 7 4 6 9 13 15 15 11 11 12 16 14 16 13 13 12 12 9 10 9 10 13 18 12 9 8 8 9 10 14 16 18 18 17 16 15 13 11 8 8 7 6 5
9 10 6 4 8 12 16 16 13 10 10 12 14 14 14 13 11 12 11 8 8 11 10 11 15 14 11 11 12 12 12 12 12 16 16 19 14 13 12 11 10 7 6 6 5
11 14 6 7 12 15 16 14 10 11 10 11 11 12 13 11 12 11 11 10 6 9 13 11 13 16 14 11 11 10 12 15 14 16 18 17 14 10 10 10 10 8 6 5 5
10 12 6 8 15 16 13 11 10 11 11 11 11 10 10 11 13 11 10 7 7 10 13 11 14 19 15 14 12 14 11 13 13 15 16 15 13 10 9 9 10 10 6 5 5
10 13 11 11 12 15 14 13 12 8 9 9 10 10 11 11 10 11 11 8 7 10 9 9 13 18 19 17 15 16 14 12 14 16 15 13 11 10 10 10 9 10 8 5 5
12 14 13 16 14 14 13 13 12 11 8 8 11 10 11 14 12 11 10 8 8 9 10 12 16 17 16 16 16 16 16 14 15 13 14 13 13 11 11 10 8 7 8 8 5
12 13 13 12 11 13 12 13 12 11 10 10 10 9 9 13 12 12 10 10 10 11 11 12 16 17 17 14 15 16 13 12 12 12 13 13 13 12 9 8 8 7 8 6 6
10 9 10 11 11 12 12 11 11 9 8 7 8 9 10 9 8 8 8 7 8 12 12 14 16 19 20 14 13 14 13 12 11 11 12 13 12 9 10 9 9 8 7 6 5